Montgomery, NY

1:03 AM EDT on May 01, 2017 (GMT -0400)
Orange County

Weather History for KMGJ - April, 2013

Change the Weather History Date:

Monday, April 22, 2013

  Actual Average (KSWF) Record (KSWF)
Temperature  
Mean Temperature 44 °F -  
Max Temperature 57 °F 59 °F 86 °F (1985)
Min Temperature 34 °F 37 °F 22 °F (1981)
Degree Days  
Heating Degree Days 20    
Moisture  
Dew Point 26 °F    
Average Humidity 50    
Maximum Humidity 70    
Minimum Humidity 29    
Precipitation  
Precipitation 0.00 in - - ()
Sea Level Pressure  
Sea Level Pressure 30.58 in    
Wind  
Wind Speed 5 mph (ESE)    
Max Wind Speed 15 mph    
Max Gust Speed 21 mph    
Visibility 10 miles    
Events      
Averages and records for this station are not official NWS values.
T = Trace of Precipitation, MM = Missing Value Source: NWS Daily Summary

Daily Weather History Graph

Daily Weather History Graph

Search for Another Location

Airport or City:

Trip Planner

Search our weather history database for the weather conditions in past years. The results will help you decide how hot, cold, wet, or windy it might be!

Date:

Astronomy

Apr. 22, 2013 Rise Set
Actual Time 6:06 AM EDT 7:45 PM EDT
Civil Twilight 5:36 AM EDT 8:14 PM EDT
Nautical Twilight 5:01 AM EDT 8:50 PM EDT
Astronomical Twilight 4:23 AM EDT 9:28 PM EDT
Moon 4:29 PM EDT (4/22) 4:02 AM EDT (4/22)
Length of Visible Light 14h 37m
Length of Day
13h 39m
Waxing Gibbous, 87% of the Moon is Illuminated
Apr 22
Waxing Gibbous
Apr 25
Full
May 2
Last Quarter
May 9
New
May 18
First Quarter

Hourly Weather History & Observations

Time (EDT) Temp. Windchill Dew Point Humidity Pressure Visibility Wind Dir Wind Speed Gust Speed Precip Events Conditions
12:54 AM 36.0 °F - 26.1 °F 67% 30.61 in 10.0 mi Calm Calm - N/A   Clear
1:54 AM 37.0 °F - 28.0 °F 70% 30.61 in 10.0 mi Calm Calm - N/A   Clear
2:54 AM 35.1 °F - 24.1 °F 64% 30.61 in 10.0 mi Calm Calm - N/A   Clear
3:54 AM 35.1 °F 30.1 °F 24.1 °F 64% 30.61 in 10.0 mi NNE 5.8 mph - N/A   Clear
4:54 AM 35.1 °F 31.0 °F 24.1 °F 64% 30.63 in 10.0 mi NNE 4.6 mph - N/A   Clear
5:54 AM 34.0 °F 29.8 °F 24.1 °F 67% 30.65 in 10.0 mi NNE 4.6 mph - N/A   Clear
6:54 AM 34.0 °F 28.8 °F 25.0 °F 70% 30.66 in 10.0 mi NNE 5.8 mph - N/A   Clear
7:54 AM 39.9 °F 34.5 °F 28.9 °F 65% 30.66 in 10.0 mi NE 8.1 mph - N/A   Clear
8:54 AM 46.0 °F 41.0 °F 30.9 °F 56% 30.66 in 10.0 mi ENE 10.4 mph - N/A   Clear
9:54 AM 48.0 °F - 26.1 °F 42% 30.67 in 10.0 mi East 9.2 mph 17.3 mph N/A   Clear
10:54 AM 50.0 °F - 24.1 °F 36% 30.64 in 10.0 mi SE 12.7 mph 19.6 mph N/A   Clear
11:54 AM 52.0 °F - 25.0 °F 35% 30.62 in 10.0 mi ESE 6.9 mph 18.4 mph N/A   Clear
12:54 PM 54.0 °F - 24.1 °F 31% 30.60 in 10.0 mi East 15.0 mph 20.7 mph N/A   Clear
1:54 PM 55.9 °F - 25.0 °F 30% 30.58 in 10.0 mi East 12.7 mph 18.4 mph N/A   Clear
2:54 PM 55.9 °F - 24.1 °F 29% 30.54 in 10.0 mi SSE 8.1 mph 17.3 mph N/A   Clear
3:54 PM 55.9 °F - 24.1 °F 29% 30.52 in 10.0 mi South 13.8 mph 20.7 mph N/A   Clear
4:54 PM 55.9 °F - 25.0 °F 30% 30.51 in 10.0 mi SSE 11.5 mph 18.4 mph N/A   Clear
5:54 PM 53.1 °F - 26.1 °F 35% 30.51 in 10.0 mi SSE 15.0 mph 20.7 mph N/A   Clear
6:54 PM 51.1 °F - 27.0 °F 39% 30.51 in 10.0 mi SSE 9.2 mph - N/A   Clear
7:54 PM 46.9 °F - 23.0 °F 39% 30.51 in 10.0 mi SSE 6.9 mph - N/A   Clear
8:54 PM 45.0 °F 42.6 °F 25.0 °F 46% 30.52 in 10.0 mi SSE 4.6 mph - N/A   Clear
9:54 PM 42.1 °F 40.2 °F 30.0 °F 62% 30.52 in 10.0 mi ESE 3.5 mph - N/A   Clear
10:54 PM 42.1 °F 40.2 °F 32.0 °F 67% 30.51 in 10.0 mi East 3.5 mph - N/A   Clear
11:54 PM 41.0 °F 39.0 °F 30.9 °F 67% 30.52 in 10.0 mi East 3.5 mph - N/A   Clear